User: anonymous   Login
Location: Unspecified
(0.0000°N, 0.0000°E)
Time: 14:33:15
(UTC+02:00)
Language:

CZ-4 DEB - Orbit

View from above orbital plane
View from above orbital plane
View from above satellite
View from above satellite

Ground track
Ground track

The orbit data is extracted from the following two-line orbital elements,

1 29508U 06046D   16151.10025739  .00028435  00000-0  53780-3 0  9999
2 29508  97.6495 190.5088 0000404 273.5253  86.5950 15.48370441526195
Epoch (UTC): 30 May 2016 02:24:22
Eccentricity: 0.0000404
inclination: 97.6495°
perigee height: 421 km
apogee height: 422 km
right ascension of ascending node: 190.5088°
argument of perigee: 273.5253°
revolutions per day: 15.48370441
mean anomaly at epoch: 86.5950°
orbit number at epoch: 52619

The dashed part of the orbit path shows where the satellite is in the earth's shadow,  

DLR